contact:dominique.lefevre@mio.osupytheas.fr, maurice.libes@osupytheas.fr, didier.mallarino@osupytheas.fr
Project:EMSO http://www.emso-fr.org/EMSO-France
Depth: 2436.0 m
Title:EMSO Ligure Ouest : Data MII capteur MICROCAT
DateTime_Computer,Latitude,Longitude,Temperature,Conductivity,Pressure,DateTime_Instrument
DateTime_Computer,Latitude,Longitude,degC,S m-1,dbar,DateTime_Instrument
2022-03-16T00:02:43Z,42.805,6.029,13.3017,4.60054,2470.227,2022-3-16T02:04:19Z
2022-03-16T00:05:46Z,42.805,6.029,13.3026,4.60054,2470.25,2022-3-16T02:07:22Z
2022-03-16T00:08:50Z,42.805,6.029,13.3019,4.60054,2470.264,2022-3-16T02:10:25Z
2022-03-16T00:11:53Z,42.805,6.029,13.3020,4.60055,2470.25,2022-3-16T02:13:29Z
2022-03-16T00:14:56Z,42.805,6.029,13.3022,4.60054,2470.227,2022-3-16T02:16:32Z
2022-03-16T00:17:59Z,42.805,6.029,13.3017,4.60052,2470.227,2022-3-16T02:19:35Z
2022-03-16T00:21:02Z,42.805,6.029,13.3022,4.60054,2470.264,2022-3-16T02:22:38Z
2022-03-16T00:24:05Z,42.805,6.029,13.3022,4.60054,2470.264,2022-3-16T02:25:41Z
2022-03-16T00:27:08Z,42.805,6.029,13.3021,4.60053,2470.227,2022-3-16T02:28:44Z
2022-03-16T00:30:11Z,42.805,6.029,13.3019,4.60054,2470.227,2022-3-16T02:31:47Z
2022-03-16T00:33:15Z,42.805,6.029,13.3018,4.60053,2470.297,2022-3-16T02:34:50Z
2022-03-16T00:36:18Z,42.805,6.029,13.3023,4.60057,2470.203,2022-3-16T02:37:54Z
2022-03-16T00:39:21Z,42.805,6.029,13.3018,4.60057,2470.25,2022-3-16T02:40:57Z
2022-03-16T00:42:24Z,42.805,6.029,13.3024,4.60056,2470.273,2022-3-16T02:44:00Z
2022-03-16T00:45:27Z,42.805,6.029,13.3022,4.60058,2470.264,2022-3-16T02:47:03Z
2022-03-16T00:48:30Z,42.805,6.029,13.3021,4.60057,2470.25,2022-3-16T02:50:06Z
2022-03-16T00:51:33Z,42.805,6.029,13.3026,4.60062,2470.264,2022-3-16T02:53:09Z
2022-03-16T00:54:36Z,42.805,6.029,13.3019,4.60054,2470.25,2022-3-16T02:56:12Z
2022-03-16T00:57:40Z,42.805,6.029,13.3021,4.60056,2470.25,2022-3-16T02:59:15Z
2022-03-16T01:00:43Z,42.805,6.029,13.3020,4.60057,2470.264,2022-3-16T03:02:19Z
2022-03-16T01:03:46Z,42.805,6.029,13.3019,4.60058,2470.227,2022-3-16T03:05:22Z
2022-03-16T01:06:49Z,42.805,6.029,13.3021,4.60056,2470.203,2022-3-16T03:08:25Z
2022-03-16T01:09:52Z,42.805,6.029,13.3022,4.60061,2470.213,2022-3-16T03:11:28Z
2022-03-16T01:12:55Z,42.805,6.029,13.3024,4.60058,2470.203,2022-3-16T03:14:31Z
2022-03-16T01:15:58Z,42.805,6.029,13.3021,4.60056,2470.25,2022-3-16T03:17:34Z
2022-03-16T01:19:01Z,42.805,6.029,13.3019,4.60054,2470.24,2022-3-16T03:20:37Z
2022-03-16T01:22:04Z,42.805,6.029,13.3021,4.60057,2470.264,2022-3-16T03:23:40Z
2022-03-16T01:25:08Z,42.805,6.029,13.3019,4.60059,2470.287,2022-3-16T03:26:44Z
2022-03-16T01:28:11Z,42.805,6.029,13.3020,4.60054,2470.227,2022-3-16T03:29:47Z
2022-03-16T01:31:14Z,42.805,6.029,13.3024,4.60054,2470.273,2022-3-16T03:32:50Z
2022-03-16T01:34:17Z,42.805,6.029,13.3024,4.60057,2470.264,2022-3-16T03:35:53Z
2022-03-16T01:37:20Z,42.805,6.029,13.3021,4.60055,2470.227,2022-3-16T03:38:56Z
2022-03-16T01:40:23Z,42.805,6.029,13.3019,4.60053,2470.25,2022-3-16T03:41:59Z
2022-03-16T01:43:26Z,42.805,6.029,13.3021,4.60054,2470.24,2022-3-16T03:45:02Z
2022-03-16T01:46:29Z,42.805,6.029,13.3024,4.60056,2470.25,2022-3-16T03:48:05Z
2022-03-16T01:49:33Z,42.805,6.029,13.3026,4.60055,2470.203,2022-3-16T03:51:09Z
2022-03-16T01:52:36Z,42.805,6.029,13.3021,4.60056,2470.297,2022-3-16T03:54:12Z
2022-03-16T01:55:39Z,42.805,6.029,13.3025,4.60055,2470.264,2022-3-16T03:57:15Z
2022-03-16T01:58:42Z,42.805,6.029,13.3025,4.60054,2470.227,2022-3-16T04:00:18Z
2022-03-16T02:01:45Z,42.805,6.029,13.3019,4.60057,2470.217,2022-3-16T04:03:21Z
2022-03-16T02:04:48Z,42.805,6.029,13.3021,4.60055,2470.203,2022-3-16T04:06:24Z
2022-03-16T02:07:51Z,42.805,6.029,13.3020,4.60055,2470.25,2022-3-16T04:09:27Z
2022-03-16T02:10:54Z,42.805,6.029,13.3020,4.60054,2470.227,2022-3-16T04:12:30Z
2022-03-16T02:13:58Z,42.805,6.029,13.3023,4.60057,2470.24,2022-3-16T04:15:33Z
2022-03-16T02:17:01Z,42.805,6.029,13.3021,4.60057,2470.203,2022-3-16T04:18:37Z
2022-03-16T02:20:04Z,42.805,6.029,13.3021,4.60057,2470.264,2022-3-16T04:21:40Z
2022-03-16T02:23:07Z,42.805,6.029,13.3025,4.60057,2470.24,2022-3-16T04:24:43Z
2022-03-16T02:26:10Z,42.805,6.029,13.3022,4.60060,2470.264,2022-3-16T04:27:46Z
2022-03-16T02:29:13Z,42.805,6.029,13.3020,4.60059,2470.24,2022-3-16T04:30:49Z
2022-03-16T02:32:16Z,42.805,6.029,13.3021,4.60056,2470.24,2022-3-16T04:33:52Z
2022-03-16T02:35:19Z,42.805,6.029,13.3015,4.60055,2470.264,2022-3-16T04:36:55Z
2022-03-16T02:38:23Z,42.805,6.029,13.3019,4.60054,2470.273,2022-3-16T04:39:58Z
2022-03-16T02:41:26Z,42.805,6.029,13.3021,4.60055,2470.25,2022-3-16T04:43:02Z
2022-03-16T02:44:29Z,42.805,6.029,13.3025,4.60056,2470.264,2022-3-16T04:46:05Z
2022-03-16T02:47:32Z,42.805,6.029,13.3023,4.60057,2470.297,2022-3-16T04:49:08Z
2022-03-16T02:50:35Z,42.805,6.029,13.3021,4.60060,2470.273,2022-3-16T04:52:11Z
2022-03-16T02:53:38Z,42.805,6.029,13.3021,4.60061,2470.264,2022-3-16T04:55:14Z
2022-03-16T02:56:41Z,42.805,6.029,13.3023,4.60061,2470.273,2022-3-16T04:58:17Z
2022-03-16T02:59:44Z,42.805,6.029,13.3020,4.60064,2470.287,2022-3-16T05:01:20Z
2022-03-16T03:02:48Z,42.805,6.029,13.3021,4.60057,2470.273,2022-3-16T05:04:23Z
2022-03-16T03:05:51Z,42.805,6.029,13.3021,4.60066,2470.297,2022-3-16T05:07:27Z
2022-03-16T03:08:54Z,42.805,6.029,13.3024,4.60059,2470.273,2022-3-16T05:10:30Z
2022-03-16T03:11:57Z,42.805,6.029,13.3022,4.60057,2470.31,2022-3-16T05:13:33Z
2022-03-16T03:15:00Z,42.805,6.029,13.3018,4.60057,2470.287,2022-3-16T05:16:36Z
2022-03-16T03:18:03Z,42.805,6.029,13.3021,4.60068,2470.31,2022-3-16T05:19:39Z
2022-03-16T03:21:06Z,42.805,6.029,13.3019,4.60071,2470.297,2022-3-16T05:22:42Z
2022-03-16T03:24:09Z,42.805,6.029,13.3023,4.60066,2470.334,2022-3-16T05:25:45Z
2022-03-16T03:27:13Z,42.805,6.029,13.3021,4.60064,2470.287,2022-3-16T05:28:48Z
2022-03-16T03:30:16Z,42.805,6.029,13.3021,4.60060,2470.297,2022-3-16T05:31:52Z
2022-03-16T03:33:19Z,42.805,6.029,13.3022,4.60061,2470.297,2022-3-16T05:34:55Z
2022-03-16T03:36:22Z,42.805,6.029,13.3020,4.60069,2470.334,2022-3-16T05:37:58Z
2022-03-16T03:39:25Z,42.805,6.029,13.3023,4.60067,2470.287,2022-3-16T05:41:01Z
2022-03-16T03:42:28Z,42.805,6.029,13.3020,4.60061,2470.334,2022-3-16T05:44:04Z
2022-03-16T03:45:31Z,42.805,6.029,13.3021,4.60057,2470.357,2022-3-16T05:47:07Z
2022-03-16T03:48:34Z,42.805,6.029,13.3023,4.60065,2470.297,2022-3-16T05:50:10Z
2022-03-16T03:51:37Z,42.805,6.029,13.3021,4.60068,2470.31,2022-3-16T05:53:13Z
2022-03-16T03:54:41Z,42.805,6.029,13.3024,4.60067,2470.32,2022-3-16T05:56:17Z
2022-03-16T03:57:44Z,42.805,6.029,13.3018,4.60063,2470.306,2022-3-16T05:59:20Z
2022-03-16T04:00:47Z,42.805,6.029,13.3021,4.60069,2470.334,2022-3-16T06:02:23Z
2022-03-16T04:03:50Z,42.805,6.029,13.3024,4.60067,2470.32,2022-3-16T06:05:26Z
2022-03-16T04:06:53Z,42.805,6.029,13.3019,4.60069,2470.32,2022-3-16T06:08:29Z
2022-03-16T04:09:56Z,42.805,6.029,13.3021,4.60072,2470.32,2022-3-16T06:11:32Z
2022-03-16T04:12:59Z,42.805,6.029,13.3015,4.60078,2470.343,2022-3-16T06:14:35Z
2022-03-16T04:16:02Z,42.805,6.029,13.3016,4.60073,2470.32,2022-3-16T06:17:38Z
2022-03-16T04:19:06Z,42.805,6.029,13.3018,4.60074,2470.334,2022-3-16T06:20:42Z
2022-03-16T04:22:09Z,42.805,6.029,13.3018,4.60074,2470.357,2022-3-16T06:23:45Z
2022-03-16T04:25:12Z,42.805,6.029,13.3022,4.60069,2470.357,2022-3-16T06:26:48Z
2022-03-16T04:28:15Z,42.805,6.029,13.3017,4.60069,2470.366,2022-3-16T06:29:51Z
2022-03-16T04:31:18Z,42.805,6.029,13.3024,4.60069,2470.366,2022-3-16T06:32:54Z
2022-03-16T04:34:21Z,42.805,6.029,13.3022,4.60077,2470.343,2022-3-16T06:35:57Z
2022-03-16T04:37:24Z,42.805,6.029,13.3022,4.60068,2470.366,2022-3-16T06:39:00Z
2022-03-16T04:40:27Z,42.805,6.029,13.3019,4.60076,2470.39,2022-3-16T06:42:03Z
2022-03-16T04:43:31Z,42.805,6.029,13.3024,4.60072,2470.357,2022-3-16T06:45:06Z
2022-03-16T04:46:34Z,42.805,6.029,13.3019,4.60069,2470.38,2022-3-16T06:48:10Z
2022-03-16T04:49:37Z,42.805,6.029,13.3021,4.60078,2470.39,2022-3-16T06:51:13Z
2022-03-16T04:52:40Z,42.805,6.029,13.3018,4.60070,2470.366,2022-3-16T06:54:16Z
2022-03-16T04:55:43Z,42.805,6.029,13.3021,4.60070,2470.427,2022-3-16T06:57:19Z
2022-03-16T04:58:46Z,42.805,6.029,13.3021,4.60066,2470.39,2022-3-16T07:00:22Z
2022-03-16T05:01:49Z,42.805,6.029,13.3021,4.60069,2470.39,2022-3-16T07:03:25Z
2022-03-16T05:04:52Z,42.805,6.029,13.3019,4.60065,2470.366,2022-3-16T07:06:28Z
2022-03-16T05:07:56Z,42.805,6.029,13.3019,4.60072,2470.404,2022-3-16T07:09:31Z
2022-03-16T05:10:59Z,42.805,6.029,13.3020,4.60064,2470.404,2022-3-16T07:12:35Z
2022-03-16T05:14:02Z,42.805,6.029,13.3021,4.60070,2470.413,2022-3-16T07:15:38Z
2022-03-16T05:17:05Z,42.805,6.029,13.3021,4.60069,2470.413,2022-3-16T07:18:41Z
2022-03-16T05:20:08Z,42.805,6.029,13.3021,4.60068,2470.427,2022-3-16T07:21:44Z
2022-03-16T05:23:11Z,42.805,6.029,13.3021,4.60072,2470.39,2022-3-16T07:24:47Z
2022-03-16T05:26:14Z,42.805,6.029,13.3022,4.60079,2470.427,2022-3-16T07:27:50Z
2022-03-16T05:29:17Z,42.805,6.029,13.3019,4.60077,2470.404,2022-3-16T07:30:53Z
2022-03-16T05:32:21Z,42.805,6.029,13.3015,4.60073,2470.413,2022-3-16T07:33:56Z
2022-03-16T05:35:24Z,42.805,6.029,13.3019,4.60081,2470.45,2022-3-16T07:37:00Z
2022-03-16T05:38:27Z,42.805,6.029,13.3020,4.60079,2470.413,2022-3-16T07:40:03Z
2022-03-16T05:41:30Z,42.805,6.029,13.3020,4.60079,2470.413,2022-3-16T07:43:06Z
2022-03-16T05:44:33Z,42.805,6.029,13.3020,4.60072,2470.45,2022-3-16T07:46:09Z
2022-03-16T05:47:36Z,42.805,6.029,13.3021,4.60087,2470.413,2022-3-16T07:49:12Z
2022-03-16T05:50:39Z,42.805,6.029,13.3017,4.60075,2470.413,2022-3-16T07:52:15Z
2022-03-16T05:53:42Z,42.805,6.029,13.3019,4.60088,2470.437,2022-3-16T07:55:18Z
2022-03-16T05:56:46Z,42.805,6.029,13.3021,4.60121,2470.45,2022-3-16T07:58:21Z
2022-03-16T05:59:49Z,42.805,6.029,13.3020,4.60185,2470.437,2022-3-16T08:01:25Z
2022-03-16T06:02:52Z,42.805,6.029,13.3021,4.60114,2470.46,2022-3-16T08:04:28Z
2022-03-16T06:05:55Z,42.805,6.029,13.3020,4.60100,2470.437,2022-3-16T08:07:31Z
2022-03-16T06:08:58Z,42.805,6.029,13.3021,4.60098,2470.45,2022-3-16T08:10:34Z
2022-03-16T06:12:01Z,42.805,6.029,13.3017,4.60114,2470.437,2022-3-16T08:13:37Z
2022-03-16T06:15:04Z,42.805,6.029,13.3019,4.60113,2470.46,2022-3-16T08:16:40Z
2022-03-16T06:18:07Z,42.805,6.029,13.3021,4.60123,2470.437,2022-3-16T08:19:43Z
2022-03-16T06:21:10Z,42.805,6.029,13.3020,4.60137,2470.45,2022-3-16T08:22:46Z
2022-03-16T06:24:14Z,42.805,6.029,13.3019,4.60145,2470.474,2022-3-16T08:25:50Z
2022-03-16T06:27:17Z,42.805,6.029,13.3019,4.60221,2470.437,2022-3-16T08:28:53Z
2022-03-16T06:30:20Z,42.805,6.029,13.3021,4.60203,2470.437,2022-3-16T08:31:56Z
2022-03-16T06:33:23Z,42.805,6.029,13.3019,4.60160,2470.52,2022-3-16T08:34:59Z
2022-03-16T06:36:26Z,42.805,6.029,13.3019,4.60178,2470.507,2022-3-16T08:38:02Z
2022-03-16T06:39:29Z,42.805,6.029,13.3020,4.60144,2470.474,2022-3-16T08:41:05Z
2022-03-16T06:42:32Z,42.805,6.029,13.3020,4.60140,2470.474,2022-3-16T08:44:08Z
2022-03-16T06:45:35Z,42.805,6.029,13.3023,4.60169,2470.474,2022-3-16T08:47:11Z
2022-03-16T06:48:39Z,42.805,6.029,13.3023,4.60160,2470.437,2022-3-16T08:50:15Z
2022-03-16T06:51:42Z,42.805,6.029,13.3024,4.60114,2470.483,2022-3-16T08:53:18Z
2022-03-16T06:54:45Z,42.805,6.029,13.3029,4.60125,2470.52,2022-3-16T08:56:21Z
2022-03-16T06:57:48Z,42.805,6.029,13.3046,4.60123,2470.437,2022-3-16T08:59:24Z
2022-03-16T07:00:51Z,42.805,6.029,13.3072,4.60129,2470.474,2022-3-16T09:02:27Z
2022-03-16T07:03:54Z,42.805,6.029,13.3069,4.60124,2470.399,2022-3-16T09:05:30Z
2022-03-16T07:06:57Z,42.805,6.029,13.3023,4.60156,2470.413,2022-3-16T09:08:33Z
2022-03-16T07:10:00Z,42.805,6.029,13.3040,4.60117,2470.45,2022-3-16T09:11:36Z
2022-03-16T07:13:04Z,42.805,6.029,13.3033,4.60145,2470.437,2022-3-16T09:14:40Z
2022-03-16T07:16:07Z,42.805,6.029,13.3061,4.60144,2470.46,2022-3-16T09:17:43Z
2022-03-16T07:19:10Z,42.805,6.029,13.3077,4.60150,2470.474,2022-3-16T09:20:46Z
2022-03-16T07:22:13Z,42.805,6.029,13.3089,4.60152,2470.45,2022-3-16T09:23:49Z
2022-03-16T07:25:16Z,42.805,6.029,13.3093,4.60155,2470.437,2022-3-16T09:26:52Z
2022-03-16T07:28:19Z,42.805,6.029,13.3100,4.60150,2470.427,2022-3-16T09:29:55Z
2022-03-16T07:31:22Z,42.805,6.029,13.3111,4.60125,2470.413,2022-3-16T09:32:58Z
2022-03-16T07:34:25Z,42.805,6.029,13.3109,4.60114,2470.45,2022-3-16T09:36:01Z
2022-03-16T07:37:29Z,42.805,6.029,13.3097,4.60121,2470.404,2022-3-16T09:39:04Z
2022-03-16T07:40:32Z,42.805,6.029,13.3088,4.60125,2470.45,2022-3-16T09:42:08Z
2022-03-16T07:43:35Z,42.805,6.029,13.3083,4.60115,2470.46,2022-3-16T09:45:11Z
2022-03-16T07:46:38Z,42.805,6.029,13.3104,4.60127,2470.404,2022-3-16T09:48:14Z
2022-03-16T07:49:41Z,42.805,6.029,13.3101,4.60149,2470.39,2022-3-16T09:51:17Z
2022-03-16T07:52:44Z,42.805,6.029,13.3101,4.60151,2470.39,2022-3-16T09:54:20Z
2022-03-16T07:55:47Z,42.805,6.029,13.3114,4.60104,2470.39,2022-3-16T09:57:23Z
2022-03-16T07:58:50Z,42.805,6.029,13.3116,4.60102,2470.427,2022-3-16T10:00:26Z
2022-03-16T08:01:54Z,42.805,6.029,13.3117,4.60099,2470.404,2022-3-16T10:03:29Z
2022-03-16T08:04:57Z,42.805,6.029,13.3104,4.60100,2470.38,2022-3-16T10:06:33Z
2022-03-16T08:08:00Z,42.805,6.029,13.3086,4.60119,2470.39,2022-3-16T10:09:36Z
2022-03-16T08:11:03Z,42.805,6.029,13.3099,4.60130,2470.404,2022-3-16T10:12:39Z
2022-03-16T08:14:06Z,42.805,6.029,13.3081,4.60115,2470.437,2022-3-16T10:15:42Z
2022-03-16T08:17:09Z,42.805,6.029,13.3106,4.60091,2470.413,2022-3-16T10:18:45Z
2022-03-16T08:20:12Z,42.805,6.029,13.3091,4.60095,2470.427,2022-3-16T10:21:48Z
2022-03-16T08:23:15Z,42.805,6.029,13.3086,4.60128,2470.427,2022-3-16T10:24:51Z
2022-03-16T08:26:19Z,42.805,6.029,13.3075,4.60114,2470.404,2022-3-16T10:27:54Z
2022-03-16T08:29:22Z,42.805,6.029,13.3095,4.60092,2470.39,2022-3-16T10:30:58Z
2022-03-16T08:32:25Z,42.805,6.029,13.3104,4.60105,2470.366,2022-3-16T10:34:01Z
2022-03-16T08:35:28Z,42.805,6.029,13.3102,4.60133,2470.39,2022-3-16T10:37:04Z
2022-03-16T08:38:31Z,42.805,6.029,13.3108,4.60114,2470.38,2022-3-16T10:40:07Z
2022-03-16T08:41:34Z,42.805,6.029,13.3118,4.60097,2470.39,2022-3-16T10:43:10Z
2022-03-16T08:44:37Z,42.805,6.029,13.3114,4.60100,2470.38,2022-3-16T10:46:13Z
2022-03-16T08:47:40Z,42.805,6.029,13.3114,4.60092,2470.357,2022-3-16T10:49:16Z
2022-03-16T08:50:44Z,42.805,6.029,13.3112,4.60113,2470.404,2022-3-16T10:52:20Z
2022-03-16T08:53:47Z,42.805,6.029,13.3113,4.60113,2470.404,2022-3-16T10:55:23Z
2022-03-16T08:56:50Z,42.805,6.029,13.3109,4.60101,2470.366,2022-3-16T10:58:26Z
2022-03-16T08:59:53Z,42.805,6.029,13.3112,4.60089,2470.38,2022-3-16T11:01:29Z
2022-03-16T09:02:56Z,42.805,6.029,13.3113,4.60110,2470.404,2022-3-16T11:04:32Z
2022-03-16T09:05:59Z,42.805,6.029,13.3115,4.60119,2470.343,2022-3-16T11:07:35Z
2022-03-16T09:09:02Z,42.805,6.029,13.3107,4.60115,2470.404,2022-3-16T11:10:38Z
2022-03-16T09:12:05Z,42.805,6.029,13.3106,4.60111,2470.357,2022-3-16T11:13:41Z
2022-03-16T09:15:09Z,42.805,6.029,13.3096,4.60105,2470.357,2022-3-16T11:16:45Z
2022-03-16T09:18:12Z,42.805,6.029,13.3079,4.60144,2470.357,2022-3-16T11:19:48Z
2022-03-16T09:21:15Z,42.805,6.029,13.3097,4.60140,2470.334,2022-3-16T11:22:51Z
2022-03-16T09:24:18Z,42.805,6.029,13.3096,4.60112,2470.343,2022-3-16T11:25:54Z
2022-03-16T09:27:21Z,42.805,6.029,13.3101,4.60114,2470.38,2022-3-16T11:28:57Z
2022-03-16T09:30:24Z,42.805,6.029,13.3100,4.60111,2470.31,2022-3-16T11:32:00Z
2022-03-16T09:33:27Z,42.805,6.029,13.3082,4.60108,2470.31,2022-3-16T11:35:03Z
2022-03-16T09:36:30Z,42.805,6.029,13.3086,4.60095,2470.31,2022-3-16T11:38:06Z
2022-03-16T09:39:34Z,42.805,6.029,13.3076,4.60104,2470.343,2022-3-16T11:41:10Z
2022-03-16T09:42:37Z,42.805,6.029,13.3124,4.60109,2470.343,2022-3-16T11:44:13Z
2022-03-16T09:45:40Z,42.805,6.029,13.3063,4.60122,2470.32,2022-3-16T11:47:16Z
2022-03-16T09:48:43Z,42.805,6.029,13.3081,4.60094,2470.334,2022-3-16T11:50:19Z
2022-03-16T09:51:46Z,42.805,6.029,13.3080,4.60080,2470.334,2022-3-16T11:53:22Z
2022-03-16T09:54:49Z,42.805,6.029,13.3085,4.60123,2470.343,2022-3-16T11:56:25Z
2022-03-16T09:57:52Z,42.805,6.029,13.3103,4.60104,2470.31,2022-3-16T11:59:28Z
2022-03-16T10:00:56Z,42.805,6.029,13.3105,4.60122,2470.31,2022-3-16T12:02:31Z
2022-03-16T10:03:59Z,42.805,6.029,13.3088,4.60092,2470.297,2022-3-16T12:05:35Z
2022-03-16T10:07:02Z,42.805,6.029,13.3101,4.60108,2470.334,2022-3-16T12:08:38Z
2022-03-16T10:10:05Z,42.805,6.029,13.3089,4.60104,2470.297,2022-3-16T12:11:41Z
2022-03-16T10:13:08Z,42.805,6.029,13.3082,4.60091,2470.31,2022-3-16T12:14:44Z
2022-03-16T10:16:11Z,42.805,6.029,13.3073,4.60081,2470.287,2022-3-16T12:17:47Z
2022-03-16T10:19:14Z,42.805,6.029,13.3069,4.60103,2470.264,2022-3-16T12:20:50Z
2022-03-16T10:22:17Z,42.805,6.029,13.3075,4.60082,2470.287,2022-3-16T12:23:53Z
2022-03-16T10:25:21Z,42.805,6.029,13.3090,4.60087,2470.25,2022-3-16T12:26:56Z
2022-03-16T10:28:24Z,42.805,6.029,13.3068,4.60074,2470.264,2022-3-16T12:30:00Z
2022-03-16T10:31:27Z,42.805,6.029,13.3070,4.60095,2470.273,2022-3-16T12:33:03Z
2022-03-16T10:34:30Z,42.805,6.029,13.3077,4.60120,2470.25,2022-3-16T12:36:06Z
2022-03-16T10:37:33Z,42.805,6.029,13.3073,4.60144,2470.24,2022-3-16T12:39:09Z
2022-03-16T10:40:36Z,42.805,6.029,13.3078,4.60091,2470.264,2022-3-16T12:42:12Z
2022-03-16T10:43:39Z,42.805,6.029,13.3072,4.60086,2470.24,2022-3-16T12:45:15Z
2022-03-16T10:46:42Z,42.805,6.029,13.3057,4.60078,2470.264,2022-3-16T12:48:18Z
2022-03-16T10:49:46Z,42.805,6.029,13.3059,4.60099,2470.25,2022-3-16T12:51:22Z
2022-03-16T10:52:49Z,42.805,6.029,13.3095,4.60094,2470.217,2022-3-16T12:54:25Z
2022-03-16T10:55:52Z,42.805,6.029,13.3075,4.60129,2470.24,2022-3-16T12:57:28Z
2022-03-16T10:58:55Z,42.805,6.029,13.3076,4.60105,2470.227,2022-3-16T13:00:31Z
2022-03-16T11:01:58Z,42.805,6.029,13.3091,4.60125,2470.25,2022-3-16T13:03:34Z
2022-03-16T11:05:01Z,42.805,6.029,13.3091,4.60117,2470.24,2022-3-16T13:06:37Z
2022-03-16T11:08:04Z,42.805,6.029,13.3069,4.60099,2470.24,2022-3-16T13:09:40Z
2022-03-16T11:11:07Z,42.805,6.029,13.3078,4.60100,2470.227,2022-3-16T13:12:43Z
2022-03-16T11:14:11Z,42.805,6.029,13.3088,4.60119,2470.227,2022-3-16T13:15:47Z
2022-03-16T11:17:14Z,42.805,6.029,13.3082,4.60099,2470.24,2022-3-16T13:18:50Z
2022-03-16T11:20:17Z,42.805,6.029,13.3086,4.60102,2470.227,2022-3-16T13:21:53Z
2022-03-16T11:38:08Z,42.805,6.029,13.3082,4.60084,2470.24,2022-3-16T13:39:44Z
2022-03-16T11:41:11Z,42.805,6.029,13.3082,4.60096,2470.24,2022-3-16T13:42:47Z
2022-03-16T11:44:14Z,42.805,6.029,13.3069,4.60090,2470.25,2022-3-16T13:45:50Z
2022-03-16T11:47:17Z,42.805,6.029,13.3052,4.60110,2470.24,2022-3-16T13:48:53Z
2022-03-16T11:50:21Z,42.805,6.029,13.3075,4.60102,2470.24,2022-3-16T13:51:56Z
2022-03-16T11:53:24Z,42.805,6.029,13.3089,4.60089,2470.217,2022-3-16T13:55:00Z
2022-03-16T11:56:27Z,42.805,6.029,13.3078,4.60086,2470.217,2022-3-16T13:58:03Z
2022-03-16T11:59:30Z,42.805,6.029,13.3093,4.60094,2470.217,2022-3-16T14:01:06Z
2022-03-16T12:02:33Z,42.805,6.029,13.3073,4.60102,2470.227,2022-3-16T14:04:09Z
2022-03-16T12:05:36Z,42.805,6.029,13.3092,4.60114,2470.24,2022-3-16T14:07:12Z
2022-03-16T12:08:39Z,42.805,6.029,13.3098,4.60109,2470.18,2022-3-16T14:10:15Z
2022-03-16T12:28:08Z,42.805,6.029,13.3098,4.60094,2470.217,2022-3-16T14:29:44Z
2022-03-16T12:31:11Z,42.805,6.029,13.3077,4.60121,2470.203,2022-3-16T14:32:47Z
2022-03-16T12:34:14Z,42.805,6.029,13.3084,4.60107,2470.217,2022-3-16T14:35:50Z
2022-03-16T12:37:17Z,42.805,6.029,13.3104,4.60099,2470.194,2022-3-16T14:38:53Z
2022-03-16T12:40:21Z,42.805,6.029,13.3114,4.60102,2470.194,2022-3-16T14:41:56Z
2022-03-16T12:43:24Z,42.805,6.029,13.3100,4.60125,2470.194,2022-3-16T14:45:00Z
2022-03-16T12:46:27Z,42.805,6.029,13.3096,4.60151,2470.171,2022-3-16T14:48:03Z
2022-03-16T12:49:30Z,42.805,6.029,13.3096,4.60105,2470.194,2022-3-16T14:51:06Z
2022-03-16T12:52:33Z,42.805,6.029,13.3097,4.60102,2470.18,2022-3-16T14:54:09Z
2022-03-16T12:55:36Z,42.805,6.029,13.3102,4.60117,2470.18,2022-3-16T14:57:12Z
2022-03-16T12:58:39Z,42.805,6.029,13.3106,4.60104,2470.217,2022-3-16T15:00:15Z
2022-03-16T13:01:42Z,42.805,6.029,13.3097,4.60104,2470.203,2022-3-16T15:03:18Z
2022-03-16T13:04:46Z,42.805,6.029,13.3111,4.60115,2470.156,2022-3-16T15:06:21Z
2022-03-16T13:07:49Z,42.805,6.029,13.3113,4.60119,2470.156,2022-3-16T15:09:25Z
2022-03-16T13:10:52Z,42.805,6.029,13.3099,4.60113,2470.194,2022-3-16T15:12:28Z
2022-03-16T13:13:55Z,42.805,6.029,13.3096,4.60108,2470.194,2022-3-16T15:15:31Z
2022-03-16T13:16:58Z,42.805,6.029,13.3106,4.60139,2470.203,2022-3-16T15:18:34Z
2022-03-16T13:20:01Z,42.805,6.029,13.3098,4.60099,2470.18,2022-3-16T15:21:37Z
2022-03-16T13:23:04Z,42.805,6.029,13.3086,4.60121,2470.171,2022-3-16T15:24:40Z
2022-03-16T13:26:07Z,42.805,6.029,13.3111,4.60099,2470.171,2022-3-16T15:27:43Z
2022-03-16T13:29:11Z,42.805,6.029,13.3117,4.60104,2470.194,2022-3-16T15:30:46Z
2022-03-16T13:32:14Z,42.805,6.029,13.3113,4.60151,2470.217,2022-3-16T15:33:50Z
2022-03-16T13:35:17Z,42.805,6.029,13.3105,4.60112,2470.18,2022-3-16T15:36:53Z
2022-03-16T13:38:20Z,42.805,6.029,13.3113,4.60128,2470.194,2022-3-16T15:39:56Z
2022-03-16T13:41:23Z,42.805,6.029,13.3106,4.60152,2470.194,2022-3-16T15:42:59Z
2022-03-16T13:44:26Z,42.805,6.029,13.3106,4.60151,2470.18,2022-3-16T15:46:02Z
2022-03-16T13:47:29Z,42.805,6.029,13.3115,4.60139,2470.18,2022-3-16T15:49:05Z
2022-03-16T13:50:32Z,42.805,6.029,13.3117,4.60120,2470.156,2022-3-16T15:52:08Z
2022-03-16T13:53:36Z,42.805,6.029,13.3122,4.60154,2470.217,2022-3-16T15:55:11Z
2022-03-16T13:56:39Z,42.805,6.029,13.3128,4.60134,2470.194,2022-3-16T15:58:15Z
2022-03-16T13:59:42Z,42.805,6.029,13.3120,4.60137,2470.231,2022-3-16T16:01:18Z
2022-03-16T14:02:45Z,42.805,6.029,13.3120,4.60150,2470.194,2022-3-16T16:04:21Z
2022-03-16T14:05:48Z,42.805,6.029,13.3041,4.60155,2470.217,2022-3-16T16:07:24Z
2022-03-16T14:08:51Z,42.805,6.029,13.3039,4.60144,2470.231,2022-3-16T16:10:27Z
2022-03-16T14:11:54Z,42.805,6.029,13.3034,4.60188,2470.194,2022-3-16T16:13:30Z
2022-03-16T14:14:57Z,42.805,6.029,13.3048,4.60147,2470.194,2022-3-16T16:16:33Z
2022-03-16T14:48:08Z,42.805,6.029,13.3054,4.60102,2470.227,2022-3-16T16:49:44Z
2022-03-16T14:51:11Z,42.805,6.029,13.3078,4.60084,2470.24,2022-3-16T16:52:47Z
2022-03-16T14:54:14Z,42.805,6.029,13.3082,4.60079,2470.25,2022-3-16T16:55:50Z
2022-03-16T14:57:18Z,42.805,6.029,13.3074,4.60134,2470.227,2022-3-16T16:58:54Z
2022-03-16T15:00:21Z,42.805,6.029,13.3074,4.60117,2470.227,2022-3-16T17:01:57Z
2022-03-16T15:03:24Z,42.805,6.029,13.3082,4.60103,2470.264,2022-3-16T17:05:00Z
2022-03-16T15:06:27Z,42.805,6.029,13.3081,4.60122,2470.227,2022-3-16T17:08:03Z
2022-03-16T15:09:30Z,42.805,6.029,13.3074,4.60099,2470.217,2022-3-16T17:11:06Z
2022-03-16T15:12:33Z,42.805,6.029,13.3060,4.60127,2470.24,2022-3-16T17:14:09Z
2022-03-16T15:15:36Z,42.805,6.029,13.3102,4.60107,2470.264,2022-3-16T17:17:12Z
2022-03-16T15:18:39Z,42.805,6.029,13.3083,4.60126,2470.264,2022-3-16T17:20:15Z
2022-03-16T15:21:43Z,42.805,6.029,13.3085,4.60131,2470.24,2022-3-16T17:23:19Z
2022-03-16T15:24:46Z,42.805,6.029,13.3086,4.60125,2470.24,2022-3-16T17:26:22Z
2022-03-16T15:27:49Z,42.805,6.029,13.3051,4.60116,2470.264,2022-3-16T17:29:25Z
2022-03-16T15:30:52Z,42.805,6.029,13.3051,4.60132,2470.264,2022-3-16T17:32:28Z
2022-03-16T15:33:55Z,42.805,6.029,13.3054,4.60134,2470.24,2022-3-16T17:35:31Z
2022-03-16T15:36:58Z,42.805,6.029,13.3053,4.60137,2470.227,2022-3-16T17:38:34Z
2022-03-16T15:40:01Z,42.805,6.029,13.3054,4.60146,2470.264,2022-3-16T17:41:37Z
2022-03-16T15:43:05Z,42.805,6.029,13.3073,4.60119,2470.273,2022-3-16T17:44:40Z
2022-03-16T15:46:08Z,42.805,6.029,13.3046,4.60135,2470.273,2022-3-16T17:47:44Z
2022-03-16T15:49:11Z,42.805,6.029,13.3048,4.60127,2470.273,2022-3-16T17:50:47Z
2022-03-16T15:52:14Z,42.805,6.029,13.3063,4.60145,2470.287,2022-3-16T17:53:50Z
2022-03-16T15:55:17Z,42.805,6.029,13.3061,4.60128,2470.264,2022-3-16T17:56:53Z
2022-03-16T15:58:20Z,42.805,6.029,13.3051,4.60172,2470.25,2022-3-16T17:59:56Z
2022-03-16T16:01:23Z,42.805,6.029,13.3058,4.60132,2470.26,2022-3-16T18:02:59Z
2022-03-16T16:04:26Z,42.805,6.029,13.3045,4.60135,2470.287,2022-3-16T18:06:02Z
2022-03-16T16:07:30Z,42.805,6.029,13.3068,4.60171,2470.273,2022-3-16T18:09:05Z
2022-03-16T16:10:33Z,42.805,6.029,13.3045,4.60127,2470.334,2022-3-16T18:12:09Z
2022-03-16T16:13:36Z,42.805,6.029,13.3048,4.60174,2470.297,2022-3-16T18:15:12Z
2022-03-16T16:16:39Z,42.805,6.029,13.3051,4.60150,2470.31,2022-3-16T18:18:15Z